Location: Rounton
(54.4000°N, 1.3500°W)
Time: 14:03:47
(UTC+00:00)

Transit 2A - Pass Details

Date: 04 December 2021
Orbit: 591 x 967 km, 66.7° (Epoch: 21 January)

Event Time Altitude Azimuth Distance (km) Brightness Sun altitude
Rises 23:46:19 0° 194° (SSW) 3,336 - -57.9°
Reaches altitude 10° 23:48:46 10° 187° (S) 2,463 - -57.9°
Maximum altitude 23:54:10 44° 118° (ESE) 1,234 - -58.0°
Drops below altitude 10° 00:00:01 10° 49° (NE) 2,669 - -58.0°
Sets 00:02:45 0° 43° (NE) 3,644 - -57.9°
